This demonstration page uses our WeatherBlox Daily Observations layout. Learn more.

Left ArrowRight Arrow

41.86663, -103.66717

Hourly Observations for July 11, 2020

Temp ( °F °C ) Dew Point ( °F °C ) Humidity (%) Winds ( mph kmh ) Pressure ( in mb ) Visibility ( mi km ) Precip ( " mm )
12:53 am 00:53 Clear 67 19.4 61 16.1 81 81 NW 12 19 29.99 1016 10 16 N/A
1:53 am 01:53 Clear 65 18.3 61 16.1 87 87 NW 14 22 30.00 1016 10 16 N/A
2:53 am 02:53 Clear 63 17.2 61 16.1 93 93 NW 9 15 30.01 1016 10 16 N/A
3:53 am 03:53 Clear 62 16.7 60 15.6 93 93 WNW 7 11 30.05 1018 10 16 N/A
4:53 am 04:53 Clear 61 16.1 59 15 93 93 WSW 3 6 30.08 1019 10 16 N/A
5:53 am 05:53 Sunny 60 15.6 58 14.4 93 93 undefined N/A 30.11 1020 10 16 N/A
6:53 am 06:53 Sunny 64 17.8 60 15.6 87 87 WNW 3 6 30.12 1020 10 16 N/A
7:53 am 07:53 Sunny 68 20 59 15 73 73 NW 5 7 30.14 1021 10 16 N/A
8:53 am 08:53 Sunny 72 22.2 58 14.4 61 61 VRB 6 9 30.14 1021 10 16 N/A
9:53 am 09:53 Sunny 77 25 57 13.9 50 50 N N/A 30.13 1020 10 16 N/A
10:53 am 10:53 Sunny 79 26.1 55 12.8 44 44 VRB 3 6 30.11 1020 10 16 N/A
11:53 am 11:53 Sunny 82 27.8 54 12.2 38 38 E 5 7 30.10 1019 10 16 N/A
12:53 pm 12:53 Sunny 87 30.6 53 11.7 31 31 E 8 13 30.07 1018 10 16 N/A
1:53 pm 13:53 Sunny 88 31.1 51 10.6 28 28 VRB 6 9 30.05 1018 10 16 N/A
2:53 pm 14:53 Sunny 89 31.7 50 10 26 26 VRB 5 7 30.03 1017 10 16 N/A
3:53 pm 15:53 Sunny 89 31.7 47 8.3 23 23 E 9 15 29.99 1016 10 16 N/A
4:53 pm 16:53 Sunny 91 32.8 44 6.7 20 20 E 7 11 29.98 1015 10 16 N/A
5:53 pm 17:53 Sunny 90 32.2 40 4.4 17 17 E 6 9 29.96 1015 10 16 N/A
6:53 pm 18:53 Sunny 87 30.6 48 8.9 26 26 ESE 8 13 29.95 1014 10 16 N/A
7:53 pm 19:53 Sunny 79 26.1 55 12.8 44 44 undefined N/A 29.95 1014 10 16 N/A
8:53 pm 20:53 Clear 79 26.1 51 10.6 38 38 ESE 16 26 29.95 1014 10 16 N/A
9:53 pm 21:53 Clear 73 22.8 54 12.2 51 51 E 12 19 29.98 1015 10 16 N/A
10:53 pm 22:53 Clear 72 22.2 53 11.7 52 52 E 15 24 29.97 1015 10 16 N/A
11:53 pm 23:53 Clear 70 21.1 54 12.2 57 57 ESE 14 22 29.98 1015 10 16 N/A

Powered by AerisWeather